This is the latest recevied weather packets stored in our database for station/object KC8SWY-15. If no packets are shown the sender has not sent any weather packets the latest 10 day(s).
| Time | Temp. | Humidity | Pressure | Rain* | Wind** | Luminosity | Snow |
|---|---|---|---|---|---|---|---|
| 1778174360 | 10° C | 47% | 1014.9 hPa | 0 mm | - | - | - |
| 1778174059 | 9.44° C | 49% | 1015 hPa | 0 mm | - | - | - |
| 1778173759 | 9.44° C | 47% | 1015.1 hPa | 0 mm | - | - | - |
| 1778173459 | 9.44° C | 46% | 1015.3 hPa | 0 mm | - | - | - |
| 1778173160 | 9.44° C | 47% | 1015.5 hPa | 0 mm | - | - | - |
| 1778172860 | 10° C | 47% | 1015.6 hPa | 0 mm | - | - | - |
| 1778172560 | 9.44° C | 48% | 1015.5 hPa | 0 mm | - | - | - |
| 1778172260 | 9.44° C | 47% | 1015.7 hPa | 0 mm | - | - | - |
| 1778171960 | 8.89° C | 47% | 1015.7 hPa | 0 mm | - | - | - |
| 1778171660 | 9.44° C | 46% | 1015.8 hPa | 0 mm | - | - | - |
| 1778171360 | 9.44° C | 47% | 1015.9 hPa | 0 mm | - | - | - |
| 1778171060 | 8.89° C | 50% | 1015.8 hPa | 0 mm | - | - | - |
| 1778170760 | 8.89° C | 48% | 1015.9 hPa | 0 mm | - | - | - |
| 1778170460 | 8.89° C | 48% | 1015.9 hPa | 0 mm | - | - | - |
| 1778170160 | 8.89° C | 49% | 1015.8 hPa | 0 mm | - | - | - |
| 1778169860 | 8.89° C | 49% | 1016 hPa | 0 mm | - | - | - |
| 1778169560 | 8.89° C | 49% | 1016 hPa | 0 mm | - | - | - |
| 1778169260 | 8.89° C | 49% | 1016 hPa | 0 mm | - | - | - |
| 1778168960 | 8.89° C | 51% | 1016 hPa | 0 mm | - | - | - |
| 1778168660 | 8.89° C | 50% | 1016 hPa | 0 mm | - | - | - |
| 1778168360 | 8.89° C | 50% | 1015.8 hPa | 0 mm | - | - | - |
| 1778168060 | 8.33° C | 50% | 1015.9 hPa | 0 mm | - | - | - |
| 1778167760 | 8.89° C | 50% | 1015.7 hPa | 0 mm | - | - | - |
| 1778167460 | 8.89° C | 49% | 1015.7 hPa | 0 mm | - | - | - |
| 1778167160 | 8.89° C | 51% | 1015.6 hPa | 0 mm | - | - | - |
* Rain latest hour (hover to see other rain measurements)
** Current wind speed in m/s (hover to see current wind gust speed)